EW0744 Weather Reports


time (UTC)temp
F
wind
direction
speed
knots
gust
knots
rain 1hr
in
rain 24hr
in
rain mn
in
humidity
%
barometer
mb
20260506113007 38 213 0.0 0.0 0.00 0.04 0.00 84 1030.0
20260506111503 39 213 0.0 0.0 0.00 0.04 0.00 82 1029.8
20260506110002 39 213 0.0 0.0 0.00 0.04 0.00 82 1029.5
20260506104616 40 213 0.0 0.0 0.00 0.04 0.00 80 1029.3
20260506103055 41 213 0.0 0.0 0.00 0.04 0.00 79 1029.2
20260506101559 41 213 0.0 0.0 0.00 0.04 0.00 78 1029.1
20260506100049 42 213 0.0 0.0 0.00 0.04 0.00 76 1028.8
20260506094554 43 213 0.0 0.0 0.00 0.04 0.00 76 1028.6
20260506093047 44 213 0.0 0.0 0.00 0.04 0.00 75 1028.5
20260506091540 45 213 0.0 0.0 0.00 0.04 0.00 73 1028.3
20260506090040 46 213 0.0 0.0 0.00 0.04 0.00 72 1028.5
20260506084537 46 213 0.0 0.0 0.00 0.04 0.00 72 1028.4
20260506083034 47 213 0.0 0.0 0.00 0.04 0.00 72 1028.5
20260506081533 47 214 0.0 1.7 0.00 0.04 0.00 74 1028.5
20260506073026 48 59 0.0 0.0 0.00 0.04 0.00 78 1028.4
20260506071524 48 59 0.0 0.0 0.00 0.04 0.00 80 1028.3
20260506061517 49 55 0.0 0.0 0.00 0.04 0.00 77 1027.6
20260506044503 52 47 0.0 0.0 0.00 0.04 0.04 71 1026.8
20260506043101 53 47 0.0 0.0 0.00 0.04 0.04 70 1026.5
20260506041607 53 48 0.0 3.5 0.00 0.04 0.04 70 1026.3
20260506040058 53 75 0.0 3.5 0.00 0.04 0.04 67 1026.0
20260506034559 54 27 0.9 4.3 0.00 0.04 0.04 66 1025.6
20260506033105 54 49 0.9 7.8 0.00 0.04 0.04 66 1025.3
20260506031556 54 84 0.9 5.2 0.00 0.04 0.04 71 1024.8
20260506030048 53 65 0.0 2.6 0.00 0.04 0.04 79 1024.2
20260506024548 54 67 0.0 0.0 0.00 0.04 0.04 77 1023.6
20260506023047 55 67 0.0 0.0 0.00 0.04 0.04 75 1023.1
20260506021551 56 67 0.0 0.0 0.00 0.04 0.04 73 1022.6
20260506014552 59 67 0.0 0.0 0.00 0.04 0.04 68 1022.0
20260506013045 60 67 0.0 0.0 0.00 0.04 0.04 65 1022.0
20260506011545 60 67 0.0 0.0 0.00 0.04 0.04 61 1022.1
20260506010047 60 67 0.0 0.0 0.00 0.04 0.04 57 1022.2
20260506004545 61 67 0.0 0.0 0.00 0.04 0.04 53 1021.7
20260506003043 61 67 0.0 1.7 0.00 0.04 0.04 52 1021.6
20260506001604 62 68 0.0 2.6 0.00 0.04 0.04 52 1021.3
20260506000046 62 103 0.0 2.6 0.00 0.04 0.04 52 1021.2
20260505234547 62 58 0.0 0.9 0.00 0.04 0.04 53 1021.5
20260505233040 62 57 0.0 2.6 0.00 0.04 0.04 54 1021.4
20260505231548 62 44 0.9 7.0 0.00 0.04 0.04 54 1021.6
20260505230038 62 71 2.6 8.7 0.00 0.04 0.04 55 1021.7
20260505224540 62 56 0.9 9.6 0.00 0.04 0.04 55 1021.6
20260505223042 62 37 1.7 8.7 0.00 0.04 0.04 54 1021.9
20260505220039 61 23 2.6 11.3 0.00 0.04 0.04 62 1022.2
20260505214551 59 36 0.9 9.6 0.00 0.04 0.04 65 1022.6
20260505213049 61 20 0.9 4.3 0.00 0.04 0.04 59 1022.3
20260505211532 62 59 0.0 2.6 0.00 0.04 0.04 56 1022.0
20260505210032 64 64 1.7 5.2 0.00 0.04 0.04 54 1022.0
20260505204531 64 66 0.9 4.3 0.00 0.04 0.04 56 1022.1
20260505203028 64 283 0.0 3.5 0.00 0.04 0.04 53 1022.6
20260505201543 66 41 4.3 11.3 0.00 0.04 0.04 53 1022.5
20260505200028 65 54 3.5 7.0 0.00 0.04 0.04 54 1022.3
20260505194523 63 279 0.0 3.5 0.00 0.04 0.04 57 1022.2
20260505193038 62 53 1.7 7.0 0.00 0.04 0.04 64 1022.5
20260505191522 59 33 0.9 7.0 0.00 0.04 0.04 69 1022.8
20260505190029 59 30 1.7 8.7 0.00 0.04 0.04 72 1022.9
20260505184524 60 25 1.7 5.2 0.00 0.04 0.04 67 1022.8
20260505183027 61 19 1.7 5.2 0.00 0.04 0.04 63 1022.8
20260505181521 62 355 0.0 2.6 0.00 0.04 0.04 61 1022.7
20260505180030 61 76 0.0 0.9 0.00 0.04 0.04 59 1022.9
20260505174522 62 74 1.7 3.5 0.00 0.04 0.04 60 1022.8
20260505173014 60 77 0.0 4.3 0.00 0.04 0.04 67 1023.0
20260505171523 59 161 0.0 2.6 0.00 0.04 0.04 70 1023.2
20260505170013 57 104 0.0 2.6 0.01 0.04 0.04 75 1023.3
20260505164511 55 101 0.0 0.9 0.01 0.04 0.04 80 1023.2
20260505163009 53 101 0.0 1.7 0.03 0.04 0.04 85 1023.3
20260505161504 52 101 0.0 0.0 0.02 0.03 0.03 86 1023.5
20260505160104 52 94 0.0 1.7 0.02 0.03 0.03 83 1023.5
20260505153105 54 76 1.7 7.8 0.01 0.01 0.01 72 1023.4
20260505151552 55 83 0.0 2.6 0.01 0.01 0.01 69 1023.2
20260505150108 55 92 0.0 5.2 0.01 0.01 0.01 70 1023.3
20260505124530 58 275 0.0 1.7 0.00 0.00 0.00 47 1022.6
20260505123045 58 271 0.0 2.6 0.00 0.00 0.00 45 1022.7
20260505121533 58 35 0.0 2.6 0.00 0.00 0.00 45 1022.5
20260505120037 58 42 0.0 0.9 0.00 0.00 0.00 45 1022.8
20260505114533 58 42 0.0 0.9 0.00 0.00 0.00 46 1022.7